Weather in Tarhuna

Libya     32°26′09″N   13°38′16″E
temp.,
°C
wind,
m/s
gust,
m/s
humid.,
%
clouds,
%
prec.,
mm/h
press.,
hPa
HPBL,
m
25 february, thu
thu2523:00+11e4681100 0.0 1032190
02:00+10e3585100 0.0 103091
05:00+9ese3489100 0.0 102948
08:00+9ese3391100 0.0 102943
11:00+13ese4568100 0.0 1030643
14:00+16ese3450100 0.0 10281074
17:00+15ene6662100 0.0 1027653
20:00+12ene6880100 0.0 1027378
26 february, fri
fri2623:00+11ese4687100 0.0 1028238
02:00+11ese3690100 0.0 1028190
05:00+10ese3595100 0.0 102786
08:00+10se3496100 0.0 102775
11:00+14se556999 0.0 1028760
14:00+17se334899 0.0 10271259
17:00+17ese224496 0.0 10251473
20:00+13e687491 0.0 1025320
27 february, sat
sat2723:00+11ese468122 0.0 1026169
02:00+10se348511 0.0 102573
05:00+9s23870 0.0 102528
08:00+8s22890 0.0 102522
11:00+14s11610 0.0 1026640
14:00+17nne11410 0.0 10251373
17:00+16ne76570 0.0 1023673
20:00+12ene45760 0.0 1024265
28 february, sun
sun2823:00+11ese34840 0.0 1025118
02:00+10s33870 0.0 102471
05:00+9s33830 0.0 102431
08:00+9s12840 0.0 102422
11:00+15sse00530 0.0 1025589
14:00+18nne21370 0.0 10241298
17:00+16ne76520 0.0 1023632
20:00+12ene57760 0.0 1024250
1 march, mon
mon123:00+11ese47810 0.0 1026207
02:00+10se46860 0.0 1026141
05:00+9sse44850 0.0 102578
08:00+9sse34880 0.0 102567
11:00+15sse565216 0.0 1026552
14:00+18se563523 0.0 10251105
17:00+19ese66350 0.0 10241456
20:00+13e711750 0.0 1025384